[[{"header":{"parameterUnit":"m.s-1","parameterCategory":1,"la1":30.2991,"la2":30.254,"lo1":-89.0895,"lo2":-89.0444,"dy":0.0017,"dx":0.0017,"nx":28,"ny":28,"refTime":"2025-07-26T21:00:00:Z","depth":0,"parameterNumber":2,"parameterNumberName":"U-component_of_WINDS"},"data":[0,0,0,0,0,0,0,0,0,0,0,0,0,0,0,0,0,0,0,0,0,0,0,0,0,0,0,0,0,0,0,0,0,0,0,0,0,0,0,0,0,0,0,0,0,0,0,0,0,0,0,0,0,0,0,0,0,0,0.6773,0.6773,0,0.6794,0.6794,0.6794,0.6792,0.6791,0.6791,0.6791,0.6811,0.6812,0.6813,0,0,0,0,0,0,0,0,0,0,0,0,0,0.6728,0.6729,0.6773,0.6773,0.6773,0.6794,0.6794,0.6794,0.6792,0.6791,0.6791,0.679,0.6811,0.6812,0.6813,0,0,0,0,0,0,0,0,0,0,0,0,0,0.6748,0.6729,0.6773,0.6774,0.6775,0.6794,0.6794,0.6794,0.6792,0.6791,0.6791,0.679,0.6811,0.6812,0.6813,0.6832,0,0,0.6817,0.6818,0,0,0,0,0,0,0,0,0.6747,0.675,0.6774,0.6774,0.6775,0.679,0.6786,0.6807,0.6792,0.6785,0.6791,0.679,0.6804,0.6806,0.6811,0.6833,0.6834,0.6817,0.6818,0.6819,0.6819,0,0,0,0,0,0,0,0.6746,0.6749,0.6781,0.6774,0.6775,0.6773,0.6776,0.679,0.6797,0.6786,0.6786,0.6788,0.6805,0.681,0.6812,0.6834,0.6817,0.6819,0.6819,0.682,0.6869,0.687,0,0,0,0,0,0,0.6744,0.6748,0.678,0.6782,0.6759,0.6775,0.6777,0.6785,0.6797,0.6799,0.6789,0.6788,0.6808,0.681,0.6812,0.6834,0.6819,0.682,0.6821,0.6869,0.687,0.687,0,0,0,0,0,0,0.6743,0.6747,0.678,0.6765,0.6769,0.6776,0.6785,0.6786,0.6791,0.6799,0.6801,0.6793,0.6808,0.6811,0.6827,0.6834,0.6821,0.6822,0.6868,0.6869,0.687,0.6877,0,0,0,0,0,0,0.6742,0.6747,0.6754,0.6765,0.677,0.6794,0.6786,0.6787,0.6794,0.6793,0.6804,0.6805,0.6808,0.6825,0.6828,0.6836,0.6823,0.6868,0.6869,0.687,0.6876,0.6878,0.6879,0,0,0,0,0,0.674,0.6756,0.6755,0.6759,0.6779,0.6794,0.6797,0.68,0.6795,0.6802,0.6807,0.6805,0.6833,0.6826,0.683,0.6838,0.6867,0.6868,0.6869,0.6875,0.6877,0.6879,0,0,0,0,0,0,0.6746,0.6757,0.6756,0.6776,0.6784,0.6794,0.6803,0.6802,0.6812,0.6811,0.6814,0.6816,0.6832,0.6837,0.6829,0.6856,0.6849,0.6851,0.6852,0.6854,0.6856,0.6854,0.6824,0,0,0,0,0,0.6749,0.6761,0.677,0.6786,0.679,0.6796,0.6803,0.6804,0.6813,0.6816,0.6822,0.6831,0.6841,0.6848,0.6858,0.6876,0.6878,0.6884,0.6886,0.6887,0.6888,0.6897,0.6899,0.6874,0.6874,0.6874,0,0,0.6757,0.6764,0.6771,0.6787,0.6794,0.6805,0.6799,0.6812,0.682,0.6818,0.6833,0.6838,0.6847,0.6864,0.6871,0.6868,0.6896,0.6888,0.689,0.689,0.6898,0.6901,0.6903,0.6875,0.6875,0.6875,0,0,0.6775,0.6783,0.6796,0.6803,0.6813,0.6816,0.682,0.6829,0.6832,0.6848,0.6846,0.6856,0.6874,0.688,0.6886,0.6905,0.6904,0.6909,0.6917,0.6925,0.6927,0.6929,0.6935,0.6937,0.691,0.691,0.691,0,0.6783,0.6801,0.6803,0.6816,0.6822,0.6821,0.6834,0.684,0.6853,0.6857,0.6854,0.6876,0.6882,0.6899,0.6904,0.6909,0.6912,0.6907,0.6927,0.6929,0.693,0.6936,0.6938,0.6911,0.6911,0.6911,0.6911,0,0.6809,0.6821,0.683,0.6842,0.685,0.6863,0.6866,0.6874,0.6874,0.6877,0.6892,0.6899,0.691,0.6915,0.6916,0.6932,0.6929,0.6926,0.692,0.6933,0.6938,0.694,0.6911,0.6911,0.6911,0.6911,0,0,0.6832,0.6845,0.6848,0.6853,0.6863,0.6872,0.6884,0.6895,0.69,0.6909,0.6918,0.6933,0.693,0.6936,0.6938,0.6945,0.6958,0.6941,0.6941,0.6943,0.6975,0.6976,0.6979,0.6957,0.6958,0.6958,0.6974,0,0.6851,0.6872,0.6874,0.6893,0.6903,0.6902,0.6912,0.6919,0.6922,0.6931,0.6935,0.6945,0.6941,0.6944,0.6951,0.6955,0.6964,0.6954,0.6965,0.6965,0.6962,0.6982,0.6984,0.6998,0.6976,0.6976,0.6976,0,0.6876,0.6885,0.6904,0.6912,0.6916,0.6925,0.6935,0.6943,0.6951,0.6952,0.6959,0.6959,0.697,0.6963,0.6978,0.6971,0.6975,0.6978,0.6978,0.6979,0.6971,0.6982,0.7003,0.7005,0.698,0.698,0.6979,0,0.6889,0.6906,0.6919,0.6924,0.6933,0.694,0.6944,0.6951,0.6957,0.6965,0.6968,0.6977,0.6982,0.6989,0.6991,0.6986,0.7005,0.6999,0.7006,0.7006,0.701,0.7009,0.7031,0.7014,0.7014,0.7014,0.7014,0,0.6909,0.6921,0.6925,0.6934,0.6946,0.6948,0.6961,0.6965,0.6971,0.6979,0.6978,0.6986,0.6989,0.6997,0.6998,0.701,0.7012,0.7013,0.7013,0.7013,0.7012,0.7015,0.7014,0.7015,0.7015,0.7015,0.7014,0,0.6926,0.693,0.6944,0.6952,0.6954,0.6963,0.6969,0.6976,0.6979,0.699,0.6992,0.6997,0.7006,0.7008,0.702,0.7021,0.7034,0.7033,0.7031,0.7031,0.7037,0.7036,0.7061,0.7064,0.7046,0.7046,0.7046,0,0.6938,0.6947,0.6955,0.6961,0.6965,0.6974,0.698,0.6982,0.6988,0.6996,0.7003,0.7012,0.7019,0.7033,0.7037,0.7045,0.7045,0.7053,0.7046,0.7045,0.7043,0.7043,0.7043,0.7054,0.7054,0.7054,0.7054,0,0.6959,0.696,0.6968,0.6977,0.6984,0.6991,0.6997,0.7002,0.7005,0.7011,0.702,0.7026,0.7037,0.7046,0.7054,0.7057,0.7056,0.7056,0.7058,0.7057,0.7055,0.7055,0.7033,0.7056,0.7056,0.7056,0.7055,0.7055,0.6973,0.698,0.6987,0.6996,0.7001,0.7007,0.7014,0.7017,0.7025,0.7034,0.7035,0.7045,0.7051,0.7061,0.7065,0.7072,0.707,0.7073,0.7074,0.7074,0.7074,0.7055,0.7074,0.7074,0.7074,0.7074,0.7074,0,0.6993,0.6997,0.7005,0.7014,0.7021,0.7019,0.7026,0.7032,0.704,0.7046,0.7053,0.7063,0.7071,0.7075,0.7083,0.7088,0.7087,0.7089,0.7089,0.7089,0.7076,0.7073,0.709,0.709,0.709,0.709,0.709,0.709,0.7004,0.7015,0.7017,0.7031,0.7035,0.7044,0.7048,0.7053,0.7058,0.7069,0.7075,0.7078,0.7083,0.7091,0.7098,0.7099,0.7101,0.7104,0.7104,0.7092,0.709,0.7089,0.7086,0.7104,0.7104,0.7116,0.7116,0.7116]},{"header":{"parameterUnit":"m.s-1","parameterCategory":1,"la1":30.2991,"la2":30.254,"lo1":-89.0895,"lo2":-89.0444,"dy":0.0017,"dx":0.0017,"nx":28,"ny":28,"refTime":"2025-07-26T21:00:00:Z","depth":0,"parameterNumber":3,"parameterNumberName":"V-component_of_WINDS"},"data":[0,0,0,0,0,0,0,0,0,0,0,0,0,0,0,0,0,0,0,0,0,0,0,0,0,0,0,0,0,0,0,0,0,0,0,0,0,0,0,0,0,0,0,0,0,0,0,0,0,0,0,0,0,0,0,0,0,0,4.5281,4.5281,0,4.5289,4.5289,4.5289,4.521,4.5208,4.5206,4.5204,4.5212,4.5214,4.5217,0,0,0,0,0,0,0,0,0,0,0,0,0,4.5193,4.5195,4.5281,4.5281,4.5281,4.5289,4.5289,4.5289,4.5211,4.5208,4.5206,4.5203,4.5211,4.5214,4.5217,0,0,0,0,0,0,0,0,0,0,0,0,0,4.522,4.5196,4.5281,4.5243,4.5239,4.5289,4.5289,4.529,4.5211,4.5208,4.5205,4.5202,4.521,4.5214,4.5217,4.5304,0,0,4.5227,4.5229,0,0,0,0,0,0,0,0,4.5218,4.5223,4.5248,4.5245,4.5242,4.5245,4.5261,4.5294,4.5212,4.5222,4.5204,4.52,4.5226,4.5228,4.5236,4.5304,4.5304,4.5228,4.523,4.5231,4.5232,0,0,0,0,0,0,0,4.5217,4.5222,4.5284,4.5249,4.5245,4.5224,4.5224,4.5267,4.5242,4.5221,4.5215,4.5217,4.5223,4.5233,4.5236,4.5304,4.5228,4.5231,4.5233,4.5234,4.544,4.5444,0,0,0,0,0,0,4.522,4.5221,4.5284,4.5284,4.5222,4.5229,4.5229,4.5248,4.5241,4.5237,4.522,4.5214,4.5229,4.5232,4.5236,4.5334,4.5231,4.5234,4.5236,4.5437,4.5441,4.5445,0,0,0,0,0,0,4.5218,4.5226,4.5283,4.5251,4.5257,4.5234,4.5255,4.5249,4.5259,4.5241,4.5236,4.5235,4.5227,4.5231,4.5287,4.5334,4.5236,4.5239,4.5433,4.5438,4.5443,4.5534,0,0,0,0,0,0,4.5216,4.5226,4.526,4.5252,4.5259,4.5335,4.5258,4.5252,4.5265,4.5257,4.5254,4.525,4.5225,4.5282,4.529,4.5337,4.5242,4.5428,4.5435,4.5441,4.5527,4.5542,4.5554,0,0,0,0,0,4.5213,4.5286,4.5262,4.527,4.53,4.5338,4.5341,4.5311,4.527,4.5302,4.529,4.525,4.5328,4.5289,4.5297,4.5345,4.5425,4.5433,4.5441,4.552,4.5539,4.5554,0,0,0,0,0,0,4.5299,4.5284,4.5257,4.533,4.5336,4.5324,4.5365,4.5332,4.5349,4.5341,4.5302,4.5302,4.5363,4.536,4.5316,4.5427,4.5369,4.5379,4.5427,4.5444,4.5458,4.5456,4.5244,0,0,0,0,0,4.5327,4.5359,4.5344,4.5409,4.5413,4.5389,4.5404,4.538,4.5384,4.5386,4.5378,4.5384,4.5409,4.5427,4.5449,4.5526,4.5523,4.5563,4.5577,4.5589,4.5597,4.5635,4.5652,4.547,4.547,4.547,0,0,4.5383,4.5379,4.5402,4.5426,4.5427,4.546,4.5391,4.543,4.5454,4.5392,4.5443,4.5438,4.5441,4.5507,4.5536,4.5506,4.5647,4.5599,4.5608,4.561,4.5645,4.5662,4.5677,4.5475,4.5475,4.5474,0,0,4.5503,4.5504,4.5557,4.556,4.5563,4.5546,4.5559,4.5552,4.5546,4.5597,4.555,4.5578,4.5623,4.5627,4.5635,4.5754,4.5717,4.5762,4.5834,4.5872,4.5886,4.5898,4.5938,4.5954,4.5771,4.5771,4.5772,0,4.5573,4.5621,4.5588,4.5629,4.564,4.5585,4.5637,4.5642,4.5653,4.5661,4.5628,4.5682,4.5681,4.5745,4.5774,4.5783,4.5795,4.5762,4.5887,4.5899,4.591,4.5948,4.5963,4.5777,4.5776,4.5776,4.5775,0,4.5705,4.574,4.5782,4.5793,4.5808,4.5855,4.5827,4.5847,4.5822,4.5808,4.5859,4.5856,4.5875,4.5889,4.5865,4.595,4.5931,4.5894,4.5834,4.5933,4.5968,4.5982,4.5784,4.5782,4.5781,4.5779,0,0,4.588,4.587,4.5886,4.5889,4.5888,4.5913,4.5956,4.5975,4.5992,4.6001,4.6035,4.6074,4.6038,4.6047,4.6022,4.6056,4.6147,4.6013,4.6012,4.6036,4.6237,4.6264,4.6282,4.6123,4.6126,4.6128,4.6236,0,4.5994,4.6067,4.6037,4.6113,4.6142,4.609,4.6128,4.6131,4.6119,4.6142,4.6128,4.6155,4.6107,4.6112,4.6143,4.613,4.6187,4.6122,4.6153,4.6154,4.6151,4.63,4.633,4.6432,4.625,4.6252,4.6254,0,4.6138,4.6151,4.6229,4.622,4.6231,4.6266,4.6279,4.6302,4.6304,4.6293,4.6302,4.627,4.631,4.6253,4.6307,4.6263,4.6274,4.627,4.6273,4.6273,4.6209,4.6302,4.6464,4.6479,4.6275,4.6274,4.6272,0,4.6253,4.6291,4.6342,4.6346,4.6338,4.6363,4.6361,4.6359,4.6371,4.6383,4.6391,4.6408,4.6417,4.643,4.6403,4.6364,4.646,4.6401,4.6451,4.6451,4.6472,4.6471,4.6636,4.6483,4.6483,4.6483,4.6482,0,4.6383,4.6432,4.6393,4.6424,4.6477,4.6442,4.6495,4.6487,4.6486,4.6514,4.6471,4.6498,4.6461,4.6484,4.6464,4.651,4.6515,4.6506,4.65,4.6509,4.651,4.6514,4.6506,4.6487,4.6486,4.6485,4.6484,0,4.6521,4.6497,4.6548,4.6536,4.6534,4.6573,4.6562,4.6589,4.6574,4.6609,4.6616,4.6592,4.6617,4.6591,4.6615,4.6601,4.6663,4.6647,4.6662,4.6657,4.6707,4.6702,4.6879,4.6899,4.6736,4.6738,4.6739,0,4.6604,4.664,4.6631,4.6646,4.6646,4.6671,4.6683,4.665,4.6664,4.6668,4.6694,4.6715,4.673,4.6772,4.6757,4.6774,4.6757,4.6818,4.6759,4.6767,4.6755,4.6752,4.6755,4.6829,4.6831,4.6833,4.6834,0,4.6753,4.6739,4.6758,4.6772,4.6788,4.6798,4.6804,4.6819,4.6784,4.6802,4.6827,4.6838,4.6861,4.6882,4.6895,4.6891,4.6857,4.6853,4.6865,4.6873,4.688,4.6874,4.6692,4.6848,4.6847,4.6846,4.6845,4.6845,4.6865,4.6893,4.689,4.6912,4.6913,4.692,4.6944,4.6931,4.6951,4.6967,4.6946,4.6976,4.6974,4.6987,4.6988,4.701,4.6984,4.7003,4.7007,4.7011,4.7017,4.6878,4.7013,4.7013,4.7012,4.7012,4.7011,0,4.701,4.7005,4.7025,4.7035,4.7051,4.7017,4.7022,4.7038,4.7064,4.7066,4.7081,4.7108,4.7128,4.7114,4.713,4.715,4.7134,4.7155,4.7152,4.7152,4.7041,4.7028,4.7168,4.7168,4.7168,4.7168,4.7168,4.7167,4.7087,4.7132,4.7118,4.7163,4.7158,4.7186,4.7191,4.7196,4.7197,4.7229,4.7245,4.7235,4.723,4.7245,4.7261,4.7256,4.7263,4.729,4.7279,4.7175,4.716,4.7145,4.7133,4.7292,4.7292,4.7388,4.7389,4.7389]}]]